Location: T. Spence Memorial Observatory
(32.7356°N, 82.2098°W)
Time: 21:35:16
(UTC-05:00)

Daily predictions for brighter satellites

Satellite Brightness Start Highest point End
(mag) Time Altitude Azimuth Time Altitude Azimuth Time Altitude Azimuth
NOAA 12 4.4 18:41:42 10° SE 18:46:43 45° ENE 18:51:47 10° N
ATLAS CENTAUR R/B 4.1 18:45:25 10° SSE 18:47:52 12° SE 18:49:42 10° ESE
Cosmos 1812 2.9 18:44:15 10° N 18:48:00 48° E 18:51:43 10° SSE
Cosmos 1386 Rocket 4.4 18:42:15 10° S 18:48:22 73° E 18:54:24 10° N
METEOR-M 4.4 18:44:58 10° SE 18:50:04 48° ENE 18:55:11 10° N
Cosmos 1954 Rocket 4.4 18:46:13 10° S 18:51:02 40° E 18:55:52 10° NNE
GPS 2-04 Rocket1 4.2 18:49:02 10° SSW 18:52:37 26° SSE 18:56:14 10° E
GEOS 3 Rocket 3.7 18:51:20 10° NE 18:56:34 68° ESE 19:01:50 10° SSW
Abrixas rocket 4.4 18:57:31 10° SSE 18:58:59 12° SE 19:00:13 11° ESE
GOES 2 Rocket 4.4 18:54:43 10° W 18:59:32 37° SSW 19:03:35 10° SE
Cosmos 2360 Rocket 3.4 18:56:18 10° N 19:00:36 22° ENE 19:04:53 10° ESE
Cosmos 1980 Rocket 3.7 18:56:08 10° NW 19:01:29 43° WSW 19:06:48 10° S
SL-8 R/B 3.8 18:59:31 10° NW 19:04:21 79° SW 19:09:10 10° SE
Cosmos 1975 Rocket 4.4 19:04:28 10° NNW 19:08:34 43° W 19:12:39 10° SSW
Helios 1B rocket 4.0 19:07:49 14° ENE 19:09:16 16° E 19:11:53 10° SE
Cosmos 1602 4.1 19:05:45 10° SSE 19:09:21 39° E 19:13:00 10° NNE
OAO 3 Copernicus 4.4 19:04:23 10° W 19:09:26 68° N 19:13:24 16° E
Cosmos 1633 2.9 19:06:21 10° SSE 19:09:50 43° E 19:13:20 10° NNE
FREGAT/IRIS 2.5 19:12:09 10° SSE 19:15:11 65° ENE 19:18:14 10° N
CZ-3C R/B 3.1 19:13:51 10° SW 19:17:16 14° SSW 19:19:15 10° SSE
ALOS 2.5 19:13:20 10° SE 19:17:45 44° ENE 19:22:11 10° N
Cosmos 1833 4.1 19:13:04 10° SSW 19:18:47 78° ESE 19:24:28 10° NNE
H-2A R/B 4.3 19:19:17 10° SE 19:20:31 11° ESE 19:20:31 11° ESE
Cosmos 1818 4.5 19:21:04 10° SW 19:26:19 50° WNW 19:31:38 10° NNE
Cosmos 1536 Rocket 3.5 19:23:03 10° N 19:27:32 81° E 19:32:00 10° S
ASTRO E2 3.7 19:25:08 10° W 19:28:56 40° SSW 19:31:26 19° SE
Cosmos 1741 Rocket 4.3 19:26:24 10° S 19:31:19 43° ESE 19:36:15 10° NNE
SJ-6B 3.0 19:27:17 10° S 19:31:20 78° WSW 19:35:20 10° NNW
FengYun 1-2 T 4.1 19:27:57 10° SSE 19:33:21 64° ENE 19:38:47 10° N
SL-16 R/B 2.5 19:29:06 10° NNW 19:34:44 69° WSW 19:40:20 10° S
Cosmos 1023 Rocket 4.3 19:29:51 10° SSW 19:34:55 86° ESE 19:40:03 10° NNE
Resurs 01 Rocket 1.6 19:32:55 10° SSE 19:37:12 54° ENE 19:41:31 10° N
DNEPR-1 R/B 3.5 19:33:49 10° NNW 19:38:01 80° WSW 19:42:24 10° SSE
Gbstr 26 Del rocket 3.0 19:38:16 10° SW 19:42:06 62° NW 19:43:56 27° NNE
Cosmos 1340 2.5 19:39:46 10° N 19:43:34 89° WSW 19:47:20 10° S
Cosmos 1238 Rocket 1.8 19:41:56 10° N 19:44:53 82° E 19:45:29 53° SSE
Meteor 1-19 Rocket 4.2 19:39:19 10° N 19:44:58 68° E 19:50:42 10° SSE
DELTA 2 R/B (1) 3.9 19:41:03 10° WNW 19:46:33 52° NNE 19:48:38 34° ENE
Hubble Space Telescope 2.8 19:47:39 10° SSW 19:49:46 15° SSE 19:49:46 15° SSE
Cosmos 2181 Rocket 4.0 19:44:21 10° N 19:50:38 89° E 19:56:59 10° S
Cosmos 2322 Rocket 3.3 19:47:14 10° NW 19:52:32 44° WSW 19:57:50 10° S
Cosmos 1300 Rocket 4.3 19:49:53 10° SSW 19:54:11 54° W 19:58:32 10° N
Tiangong 2 2.2 19:52:24 10° NW 19:54:34 35° NNW 19:54:34 35° NNW
Cosmos 1536 2.7 19:52:33 10° S 19:56:33 88° W 20:00:33 10° N
Meteor 1-13 Rocket 4.3 19:53:52 10° NNW 19:59:26 76° W 20:05:04 10° S
Delta R/B 4.4 19:47:53 10° WSW 19:59:38 46° S 20:00:42 38° SE
Resurs 1-3 3.4 19:55:31 10° SSE 19:59:53 85° E 20:04:18 10° N
CZ-2D R/B 4.0 20:03:05 40° N 20:03:05 40° N 20:05:39 10° N
FENGYUN 3A 4.0 19:57:44 10° S 20:03:04 64° WSW 20:08:28 10° NNW
Cosmos 2074 Rocket 3.8 19:58:12 10° S 20:04:24 77° E 20:10:40 10° N
Cosmos 1140 Rocket 4.4 19:59:40 10° SW 20:04:35 47° WNW 20:09:34 10° N
Cosmos 2184 Rocket 3.9 19:58:48 10° S 20:05:06 74° E 20:11:23 10° N
Cosmos 2322 3.6 19:59:45 10° NNW 20:05:28 71° ENE 20:07:31 40° SE
SL-19 R/B 4.4 20:01:09 10° S 20:06:42 75° WSW 20:12:33 10° NNW
Cosmos 1461 4.3 20:07:04 10° NW 20:10:47 36° WSW 20:13:35 16° S
H-2A R/B 3.1 20:10:08 41° SSW 20:11:07 58° W 20:14:48 10° NNW
Meteor 1-23 Rocket 4.1 20:05:36 10° N 20:11:23 66° E 20:12:58 46° SE
Spot 2 Rocket 3.8 20:08:13 10° S 20:13:12 63° WSW 20:18:14 10° NNW
Cosmos 2208 Rocket 4.5 20:08:11 10° N 20:12:31 46° NE 20:12:31 46° NE
COSMOS 2428 3.4 20:13:03 10° N 20:16:58 37° NNE 20:16:58 37° NNE
Meteor 2-4 Rocket 3.6 20:13:31 10° N 20:19:04 84° W 20:22:38 22° S
Cosmos 2237 4.3 20:13:24 10° NNW 20:18:32 57° NE 20:18:32 57° NE
Helios 1A 4.3 20:21:30 31° NNW 20:21:30 31° NNW 20:23:43 10° NNW
GPS 2-04 Rocket1 4.0 20:27:55 10° WSW 20:30:46 40° WSW 20:30:46 40° WSW
USA 229 DEB 4.5 20:26:49 10° NNW 20:32:15 38° NNE 20:32:15 38° NNE
USA 229 4.5 20:26:56 10° NNW 20:32:19 37° NNE 20:32:19 37° NNE
Cosmos 2219 3.9 20:31:34 10° SW 20:37:10 53° WNW 20:41:01 20° N
Helios 1B rocket 4.2 20:44:11 29° WNW 20:44:35 30° WNW 20:48:12 10° SW
Cosmos 2360 Rocket 3.2 20:39:25 10° NW 20:44:44 43° WSW 20:47:02 29° SSW
Cosmos 2219 Rocket 4.1 20:42:44 10° N 20:44:08 17° N 20:44:08 17° N
ATLAS 2A CENTAUR R/B 3.9 21:04:38 10° WSW 21:07:24 32° SSW 21:07:24 32° SSW
CZ-3 Stage 3 4.4 21:24:50 10° WSW 21:44:41 44° SSW 21:44:41 44° SSW
